Regional Weather Roundup
Issued by NWS

Home | Current Version | Previous Version | Text Only | Print | Product List | Glossary Off
Versions: 1 2 3 4 5 6 7 8 9 10 11 12 13 14 15 16 17 18 19 20 21 22 23 24 25 26 27 28 29 30 31 32 33 34 35 36 37 38 39 40 41 42 43 44 45 46 47 48 49 50

000
ASUS45 KSLC 280810
RWRUT

UTAH REGIONAL WEATHER ROUNDUP
NATIONAL WEATHER SERVICE SALT LAKE CITY UT
200 AM MDT MON JUL 28 2014

UTZ001>011-023>025-280900-

NORTHERN UTAH

CITY           SKY/WX    TMP DP  RH WIND       PRES   REMARKS
HILL AFB       MOCLDY    79  46  30 SE6       30.20R
LOGAN          CLEAR     69  47  45 VRB3      30.15S
OGDEN          MOCLDY    78  41  26 S8        30.16R
PROVO AIRPORT  CLOUDY    79  48  34 E7        30.19F
SALT LAKE CITY CLOUDY    85  47  26 S8        30.13R
VERNAL         PTCLDY    70  43  37 W5        30.24S
WENDOVER       CLOUDY    82  45  26 W13       30.14F
HEBER CITY     CLOUDY    68  46  45 E5        30.26S
WEST JORDAN    CLEAR     82  55  39 S10       30.17S

$$

UTZ012>022-026-027-280900-

SOUTHERN UTAH

CITY           SKY/WX    TMP DP  RH WIND       PRES   REMARKS
BRYCE CANYON   CLOUDY    58  54  86 N6        30.47S
CEDAR CITY     CLOUDY    65  55  70 SW20G29   30.31R
MILFORD        CLOUDY    73  50  44 SW10      30.24R
MOAB/CYNLANDS  CLOUDY    74  61  63 SW8       30.23F
PRICE          CLOUDY    75  45  34 E5        30.32R
ST GEORGE      CLOUDY    79  57  47 NE18G24   30.16R
KANAB            N/A     68  55  64 N3        30.30F

$$

REGIONAL REPORTS     COLORADO/ARIZONA

CITY           SKY/WX    TMP DP  RH WIND       PRES   REMARKS
CRAIG, CO      PTCLDY    50  47  89 SE3       30.34S
GRAND JUNCTION CLOUDY    77  49  37 E3        30.27R
RIFLE          CLOUDY    67  49  52 CALM      30.31R
MONTROSE       MOCLDY    70  51  51 SE7       30.36S
CORTEZ         PTCLDY    65  59  81 SE3       30.39S
PAGE, AZ       CLOUDY    78  55  44 W3        30.24R
GRAND CANYON   CLOUDY    60  58  92 CALM      30.41F
KINGMAN        CLOUDY    78  56  46 SE9       30.13S
FLAGSTAFF      CLOUDY    62  51  67 SW14G20   30.46R

$$

REGIONAL REPORTS    NEVADA/IDAHO/WYOMING

CITY           SKY/WX    TMP DP  RH WIND       PRES   REMARKS
LAS VEGAS, NV  CLOUDY    81  62  52 S9        30.00S
ELY            CLOUDY    64  50  60 W8        30.34F
ELKO           CLOUDY    77  44  30 W8        30.22S
POCATELLO, ID  CLEAR     65  40  39 NW9       30.14S
BURLEY         PTCLDY    66  52  60 CALM      30.10R
EVANSTON, WY   MOCLDY    69  24  18 N6        30.38S
ROCK SPRINGS   CLEAR     66  42  41 NE5       30.38S

$$



USA.gov is the U.S. government's official web portal to all federal, state and local government web resources and services.